| time (UTC) | temp F | wind direction | speed MPH | gust MPH | rain 1hr in | rain 24hr in | rain mn in | humidity % | barometer mb |
| 20260906215744 | 79 | 183 | 11.0 | 22.0 | 0.00 | 0.00 | 0.00 | 20 | 1012.0 |
| 20260906213241 | 80 | 213 | 11.0 | 18.0 | 0.00 | 0.00 | 0.00 | 20 | 1012.2 |
| 20260906204741 | 79 | 198 | 12.0 | 19.0 | 0.00 | 0.00 | 0.00 | 21 | 1012.9 |
| 20260906202737 | 78 | 175 | 14.0 | 26.0 | 0.00 | 0.00 | 0.00 | 23 | 1012.9 |
| 20260906192733 | 78 | 142 | 5.0 | 10.0 | 0.00 | 0.00 | 0.00 | 22 | 1013.3 |
| 20260906191732 | 78 | 96 | 4.0 | 7.0 | 0.00 | 0.00 | 0.00 | 23 | 1013.4 |
| 20260906190730 | 78 | 63 | 3.0 | 10.0 | 0.00 | 0.00 | 0.00 | 22 | 1013.6 |
| 20260906180724 | 77 | 139 | 4.0 | 11.0 | 0.00 | 0.00 | 0.00 | 23 | 1015.4 |
| 20260906180225 | 76 | 149 | 4.0 | 10.0 | 0.00 | 0.00 | 0.00 | 23 | 1015.4 |
| 20260906174223 | 76 | 311 | 4.0 | 7.0 | 0.00 | 0.00 | 0.00 | 22 | 1015.5 |
| 20260906173219 | 75 | 57 | 3.0 | 9.0 | 0.00 | 0.00 | 0.00 | 23 | 1015.8 |
| 20260906163713 | 71 | 36 | 3.0 | 8.0 | 0.00 | 0.00 | 0.00 | 26 | 1016.3 |
| 20260906162713 | 69 | 18 | 2.0 | 6.0 | 0.00 | 0.00 | 0.00 | 28 | 1016.4 |
| 20260906151212 | 60 | 331 | 2.0 | 5.0 | 0.00 | 0.00 | 0.00 | 43 | 1017.0 |
| 20260906150005 | 59 | 313 | 1.0 | 5.0 | 0.00 | 0.00 | 0.00 | 44 | 1016.9 |
| 20260906140712 | 52 | 57 | 2.0 | 5.0 | 0.00 | 0.00 | 0.00 | 53 | 1016.9 |
| 20260906133213 | 50 | 281 | 2.0 | 7.0 | 0.00 | 0.00 | 0.00 | 55 | 1016.6 |
| 20260906130006 | 48 | 318 | 2.0 | 4.0 | 0.00 | 0.00 | 0.00 | 58 | 1016.4 |
| 20260906123714 | 47 | 318 | 2.0 | 4.0 | 0.00 | 0.00 | 0.00 | 59 | 1016.3 |
| 20260906122711 | 47 | 318 | 2.0 | 4.0 | 0.00 | 0.00 | 0.00 | 58 | 1016.3 |
| 20260906113212 | 50 | 283 | 1.0 | 4.0 | 0.00 | 0.00 | 0.00 | 55 | 1016.4 |
| 20260906112214 | 50 | 283 | 1.0 | 4.0 | 0.00 | 0.00 | 0.00 | 56 | 1016.5 |
| 20260906111713 | 49 | 283 | 2.0 | 5.0 | 0.00 | 0.00 | 0.00 | 56 | 1016.4 |
| 20260906104159 | 53 | 340 | 4.0 | 7.0 | 0.00 | 0.00 | 0.00 | 49 | 1016.0 |
| 20260906102701 | 53 | 346 | 4.0 | 7.0 | 0.00 | 0.00 | 0.00 | 48 | 1016.1 |
| 20260906100157 | 53 | 346 | 3.0 | 5.0 | 0.00 | 0.00 | 0.00 | 48 | 1015.8 |
| 20260906094153 | 55 | 328 | 1.0 | 4.0 | 0.00 | 0.00 | 0.00 | 48 | 1015.7 |
| 20260906093654 | 54 | 328 | 1.0 | 4.0 | 0.00 | 0.00 | 0.00 | 47 | 1015.5 |
| 20260906085647 | 54 | 328 | 0.0 | 2.0 | 0.00 | 0.00 | 0.00 | 48 | 1015.3 |
| 20260906081142 | 55 | 344 | 1.0 | 4.0 | 0.00 | 0.00 | 0.00 | 44 | 1015.3 |
| 20260906080643 | 56 | 344 | 1.0 | 4.0 | 0.00 | 0.00 | 0.00 | 43 | 1015.3 |
| 20260906073140 | 59 | 305 | 0.0 | 2.0 | 0.00 | 0.00 | 0.00 | 40 | 1015.3 |
| 20260906064141 | 62 | 149 | 1.0 | 4.0 | 0.00 | 0.00 | 0.00 | 37 | 1015.2 |
| 20260906063642 | 63 | 151 | 1.0 | 4.0 | 0.00 | 0.00 | 0.00 | 36 | 1015.2 |
| 20260906062140 | 64 | 158 | 0.0 | 2.0 | 0.00 | 0.00 | 0.00 | 35 | 1015.2 |
| 20260906045642 | 67 | 209 | 5.0 | 9.0 | 0.00 | 0.00 | 0.00 | 29 | 1015.1 |
| 20260906044139 | 68 | 219 | 6.0 | 10.0 | 0.00 | 0.00 | 0.00 | 28 | 1015.2 |
| 20260906043640 | 69 | 206 | 6.0 | 9.0 | 0.00 | 0.00 | 0.00 | 28 | 1015.2 |
| 20260906042141 | 70 | 178 | 7.0 | 11.0 | 0.00 | 0.00 | 0.00 | 27 | 1015.2 |
| 20260906033140 | 69 | 173 | 1.0 | 5.0 | 0.00 | 0.00 | 0.00 | 29 | 1014.9 |
| 20260906023142 | 72 | 187 | 5.0 | 7.0 | 0.00 | 0.00 | 0.00 | 26 | 1014.5 |
| 20260906015645 | 75 | 167 | 7.0 | 12.0 | 0.00 | 0.00 | 0.00 | 24 | 1014.2 |
| 20260906013643 | 76 | 190 | 10.0 | 18.0 | 0.00 | 0.00 | 0.00 | 22 | 1014.1 |
| 20260906001139 | 81 | 173 | 11.0 | 20.0 | 0.00 | 0.00 | 0.00 | 19 | 1013.9 |
| 20260905234141 | 82 | 153 | 9.0 | 18.0 | 0.00 | 0.00 | 0.00 | 18 | 1013.7 |
| 20260905233640 | 82 | 189 | 8.0 | 18.0 | 0.00 | 0.00 | 0.00 | 18 | 1013.7 |
| 20260905230619 | 81 | 148 | 8.0 | 18.0 | 0.00 | 0.00 | 0.00 | 19 | 1014.0 |